Location: Newark
(47.3150°N, 5.1150°E)
Time: 12:49:56
(UTC+00:00)

Envisat - Pass Details

Date: 28 October 2019
Orbit: 764 x 766 km, 98.1° (Epoch: 19 November)

Event Time Altitude Azimuth Distance (km) Brightness Sun altitude
Rises 17:32:29 0° 164° (SSE) 3,220 6.1 -11.2°
Reaches altitude 10° 17:34:47 10° 164° (SSE) 2,298 5.4 -11.6°
Maximum altitude 17:39:52 89° 74° (ENE) 773 3.0 -12.4°
Drops below altitude 10° 17:44:59 10° 347° (NNW) 2,314 5.6 -13.3°
Sets 17:47:18 0° 347° (NNW) 3,245 6.4 -13.7°
